This is the latest recevied weather packets stored in our database for station/object DB0MW-13. If no packets are shown the sender has not sent any weather packets the latest 10 day(s).
| Time | Temp. | Humidity | Pressure | Rain* | Wind** | Luminosity | Snow |
|---|---|---|---|---|---|---|---|
| 1777704000 | 12.22° C | 59% | 1023.3 hPa | 0 mm | - | - | - |
| 1777703700 | 12.22° C | 61% | 1023.3 hPa | 0 mm | - | - | - |
| 1777703400 | 11.67° C | 64% | 1023.3 hPa | 0 mm | - | - | - |
| 1777703100 | 11.11° C | 65% | 1023.3 hPa | 0 mm | - | - | - |
| 1777702800 | 11.11° C | 69% | 1023.2 hPa | 0 mm | - | - | - |
| 1777702500 | 10.56° C | 69% | 1023.3 hPa | 0 mm | - | - | - |
| 1777702200 | 10° C | 70% | 1023.2 hPa | 0 mm | - | - | - |
| 1777701900 | 10° C | 71% | 1023.2 hPa | 0 mm | - | - | - |
| 1777701600 | 9.44° C | 71% | 1023.4 hPa | 0 mm | - | - | - |
| 1777701300 | 9.44° C | 73% | 1023.3 hPa | 0 mm | - | - | - |
| 1777701000 | 9.44° C | 74% | 1023.6 hPa | 0 mm | - | - | - |
| 1777700700 | 8.89° C | 74% | 1023.4 hPa | 0 mm | - | - | - |
| 1777700401 | 8.33° C | 74% | 1023.3 hPa | 0 mm | - | - | - |
| 1777700101 | 8.33° C | 75% | 1023.4 hPa | 0 mm | - | - | - |
| 1777699801 | 8.33° C | 75% | 1023.3 hPa | 0 mm | - | - | - |
| 1777699501 | 8.33° C | 76% | 1023.4 hPa | 0 mm | - | - | - |
| 1777699201 | 7.78° C | 76% | 1023.4 hPa | 0 mm | - | - | - |
| 1777698901 | 7.78° C | 76% | 1023.4 hPa | 0 mm | - | - | - |
| 1777698601 | 7.78° C | 77% | 1023.3 hPa | 0 mm | - | - | - |
| 1777698301 | 7.78° C | 78% | 1023.2 hPa | 0 mm | - | - | - |
| 1777698000 | 7.78° C | 78% | 1023.2 hPa | 0 mm | - | - | - |
| 1777697700 | 7.78° C | 79% | 1023.2 hPa | 0 mm | - | - | - |
| 1777697401 | 7.78° C | 78% | 1023.4 hPa | 0 mm | - | - | - |
| 1777697101 | 7.78° C | 79% | 1023.1 hPa | 0 mm | - | - | - |
| 1777696801 | 7.78° C | 80% | 1023.1 hPa | 0 mm | - | - | - |
* Rain latest hour (hover to see other rain measurements)
** Current wind speed in m/s (hover to see current wind gust speed)